Location: Shepherdstown, WV
(39.4326°N, 77.8042°W)
Time: 05:54:47
(UTC-04:00)

Vanguard 3 - Pass Details

Date: 08 August 2021
Orbit: 510 x 3260 km, 33.3° (Epoch: 21 September)

Event Time Altitude Azimuth Distance (km) Brightness Sun altitude
Rises 16:01:36 0° 225° (SW) 3,971 11.3 47.1°
Reaches altitude 10° 16:04:01 10° 217° (SW) 3,296 11.0 46.7°
Maximum altitude 16:12:09 43° 149° (SSE) 2,438 9.9 45.2°
Drops below altitude 10° 16:25:46 10° 85° (E) 5,453 11.0 42.7°
Sets 16:31:05 0° 81° (E) 6,804 11.4 41.7°
